Temp
-11 -12 -14 -11 -12 -13 -12 -12 -11 -11 -10 -10 -10 -10 -10 -11 -10 -11 -11 -11 -10 -12 -12 -12 -12 -12 -12 -13 -13 -13 -13 -13 -12 -12 -12 -12 -12 -12 -13 -13 -13 -13 -13 -13 -13 -13 -13 -13 -13
-12 -14 -14 -14 -13 -14 -14 -12 -12 -12 -11 -10 -10 -10 -11 -11 -10 -11 -11 -11 -11 -12 -12 -12 -12 -12 -13 -13 -13 -13 -13 -12 -12 -12 -12 -13 -13 -13 -13 -13 -13 -13 -13 -13 -13 -13 -13 -13 -13
-14 -12 -13 -13 -14 -13 -13 -12 -12 -12 -11 -11 -11 -11 -10 -10 -11 -11 -11 -11 -11 -12 -12 -12 -13 -13 -12 -12 -12 -12 -12 -12 -12 -12 -13 -13 -13 -13 -13 -13 -13 -13 -13 -13 -13 -13 -13 -14 -13
-14 -14 -14 -14 -13 -14 -13 -13 -12 -11 -11 -11 -10 -10 -11 -12 -11 -12 -12 -12 -12 -12 -12 -12 -12 -12 -12 -12 -12 -12 -12 -12 -12 -13 -13 -13 -13 -13 -13 -13 -13 -14 -14 -14 -14 -14 -14 -14 -14
-14 -14 -14 -14 -13 -14 -14 -13 -13 -13 -12 -11 -11 -12 -12 -11 -12 -12 -12 -12 -12 -12 -12 -12 -12 -12 -12 -12 -12 -12 -12 -13 -13 -13 -13 -13 -13 -13 -13 -13 -14 -14 -14 -14 -14 -14 -14 -14 -14
-14 -14 -15 -15 -15 -14 -13 -13 -12 -12 -13 -12 -13 -13 -13 -12 -12 -11 -12 -12 -12 -12 -12 -12 -12 -12 -12 -12 -12 -12 -13 -13 -13 -13 -13 -13 -13 -14 -14 -14 -14 -14 -14 -14 -14 -14 -14 -14 -14
-13 -15 -15 -13 -13 -14 -13 -13 -12 -13 -12 -12 -14 -14 -13 -12 -12 -12 -12 -13 -12 -13 -12 -12 -12 -12 -12 -12 -13 -13 -13 -13 -13 -13 -13 -14 -14 -14 -14 -14 -15 -14 -14 -14 -15 -15 -14 -14 -14
-14 -14 -14 -14 -13 -13 -14 -13 -13 -12 -12 -13 -14 -13 -13 -13 -13 -12 -12 -13 -13 -12 -12 -12 -12 -13 -13 -13 -13 -13 -13 -13 -13 -13 -14 -14 -14 -14 -14 -14 -15 -15 -14 -14 -14 -14 -14 -14 -14
-15 -15 -14 -13 -13 -13 -12 -12 -12 -13 -13 -13 -13 -13 -13 -13 -13 -13 -13 -13 -13 -12 -12 -12 -13 -13 -13 -13 -13 -13 -13 -13 -14 -14 -14 -14 -15 -15 -15 -15 -15 -15 -15 -14 -14 -14 -14 -14 -14
-15 -15 -15 -14 -13 -13 -13 -13 -14 -14 -13 -13 -13 -14 -13 -13 -13 -13 -13 -13 -12 -12 -13 -12 -13 -13 -13 -13 -13 -14 -14 -14 -14 -14 -14 -15 -15 -15 -15 -15 -15 -15 -15 -14 -15 -14 -14 -14 -15
-15 -15 -14 -14 -14 -14 -13 -14 -14 -14 -13 -13 -13 -14 -13 -13 -13 -13 -13 -13 -13 -12 -12 -13 -13 -13 -14 -13 -14 -14 -14 -14 -14 -15 -15 -15 -15 -15 -15 -15 -15 -15 -15 -15 -15 -14 -15 -15 -15
-16 -15 -15 -15 -14 -15 -14 -15 -15 -14 -14 -14 -14 -14 -14 -14 -13 -13 -13 -13 -13 -13 -13 -13 -14 -14 -14 -14 -14 -14 -15 -15 -15 -15 -15 -15 -15 -15 -14 -15 -15 -15 -14 -14 -14 -14 -15 -15 -15
-16 -15 -15 -15 -15 -15 -15 -15 -14 -14 -14 -14 -14 -14 -14 -13 -13 -13 -13 -13 -13 -13 -13 -14 -14 -14 -14 -14 -15 -15 -15 -15 -15 -15 -15 -15 -14 -14 -14 -14 -15 -15 -15 -15 -14 -15 -15 -15 -15
-16 -16 -15 -14 -14 -15 -14 -14 -14 -14 -14 -14 -14 -14 -13 -13 -13 -13 -12 -13 -14 -14 -14 -14 -15 -14 -14 -15 -15 -15 -15 -15 -15 -15 -15 -15 -15 -15 -15 -15 -15 -15 -15 -15 -15 -15 -15 -15 -15
-15 -15 -15 -15 -14 -14 -14 -14 -14 -14 -14 -14 -14 -13 -13 -13 -13 -13 -13 -14 -14 -14 -14 -14 -14 -14 -15 -15 -15 -15 -15 -15 -15 -15 -15 -15 -16 -16 -16 -16 -16 -16 -15 -15 -15 -15 -15 -15 -15
-15 -14 -15 -14 -14 -14 -14 -14 -14 -14 -14 -13 -13 -13 -13 -13 -13 -14 -14 -14 -14 -14 -14 -14 -14 -14 -14 -15 -15 -15 -16 -16 -15 -15 -16 -16 -16 -16 -16 -16 -16 -16 -16 -16 -16 -16 -16 -15 -15
-15 -15 -15 -14 -14 -14 -14 -14 -14 -14 -14 -13 -13 -13 -13 -13 -13 -14 -14 -14 -14 -14 -14 -14 -14 -14 -15 -16 -16 -16 -16 -16 -16 -16 -16 -16 -17 -17 -17 -17 -16 -16 -16 -16 -16 -16 -15 -15 -15
-15 -15 -15 -15 -15 -15 -15 -14 -14 -14 -14 -13 -13 -13 -13 -13 -13 -14 -14 -14 -14 -14 -14 -14 -15 -15 -16 -16 -17 -17 -16 -16 -17 -17 -17 -17 -17 -17 -17 -17 -16 -16 -16 -16 -16 -16 -16 -16 -16
-15 -15 -15 -15 -15 -15 -15 -14 -14 -13 -13 -14 -14 -14 -14 -14 -15 -15 -14 -14 -14 -14 -15 -16 -16 -17 -16 -17 -16 -16 -16 -17 -17 -17 -17 -17 -17 -17 -17 -16 -16 -16 -16 -16 -16 -16 -16 -17 -17
-15 -15 -14 -15 -15 -15 -14 -14 -14 -14 -13 -14 -13 -14 -15 -16 -16 -16 -15 -15 -16 -16 -16 -17 -17 -17 -16 -16 -16 -16 -17 -17 -17 -17 -18 -18 -17 -17 -17 -17 -17 -17 -17 -17 -17 -17 -18 -18 -18
-15 -15 -15 -15 -15 -15 -15 -14 -14 -14 -14 -14 -15 -15 -16 -16 -16 -15 -15 -16 -16 -17 -17 -17 -16 -16 -16 -17 -17 -17 -18 -18 -18 -18 -18 -17 -17 -17 -17 -18 -18 -18 -18 -18 -18 -18 -18 -19 -19
-15 -15 -15 -15 -15 -15 -15 -14 -14 -14 -15 -15 -15 -15 -15 -16 -15 -15 -15 -16 -16 -16 -16 -17 -17 -17 -17 -18 -18 -18 -18 -18 -18 -18 -18 -18 -19 -19 -19 -18 -18 -18 -18 -18 -19 -19 -19 -20 -20
-15 -15 -15 -15 -14 -15 -15 -15 -14 -14 -14 -15 -15 -16 -16 -15 -15 -15 -15 -16 -16 -16 -17 -17 -17 -17 -17 -18 -18 -18 -19 -19 -18 -18 -18 -18 -18 -18 -18 -18 -18 -19 -19 -19 -20 -20 -21 -21 -22
-15 -15 -15 -15 -15 -15 -15 -14 -14 -14 -15 -15 -16 -15 -15 -15 -16 -16 -16 -17 -17 -17 -17 -17 -18 -18 -18 -18 -18 -18 -18 -18 -18 -18 -18 -18 -18 -18 -18 -19 -19 -20 -20 -20 -21 -22 -22 -23 -23
-15 -15 -15 -14 -14 -14 -14 -14 -14 -14 -15 -15 -15 -16 -16 -16 -17 -16 -16 -16 -17 -17 -17 -18 -18 -18 -18 -18 -18 -18 -17 -17 -17 -18 -18 -18 -18 -19 -19 -20 -20 -21 -21 -22 -23 -23 -24 -24 -24
-14 -14 -14 -14 -14 -14 -14 -14 -14 -15 -15 -15 -15 -15 -16 -16 -16 -16 -17 -17 -17 -18 -18 -17 -17 -17 -17 -17 -17 -17 -17 -17 -18 -18 -18 -18 -19 -19 -20 -20 -21 -21 -22 -23 -23 -23 -24 -26 -27
-14 -14 -14 -14 -14 -14 -14 -14 -14 -15 -15 -15 -15 -16 -16 -16 -17 -17 -17 -17 -17 -17 -17 -17 -17 -17 -17 -17 -17 -17 -18 -18 -18 -18 -18 -19 -20 -20 -21 -21 -22 -22 -23 -23 -24 -25 -27 -30 -30
-14 -14 -14 -14 -14 -14 -14 -14 -14 -14 -14 -15 -15 -16 -16 -17 -17 -17 -17 -17 -17 -17 -17 -17 -18 -18 -18 -18 -18 -18 -18 -18 -18 -18 -19 -20 -20 -20 -21 -22 -22 -23 -24 -26 -28 -30 -31 -31 -32
-14 -14 -14 -14 -14 -14 -14 -14 -14 -14 -14 -15 -15 -15 -16 -16 -16 -16 -17 -17 -17 -18 -18 -18 -18 -18 -18 -18 -18 -18 -18 -18 -19 -19 -19 -20 -20 -21 -22 -23 -24 -25 -27 -31 -31 -32 -32 -33 -32
-15 -14 -14 -14 -14 -14 -14 -14 -14 -14 -15 -15 -15 -15 -15 -15 -16 -16 -17 -17 -18 -18 -18 -18 -18 -18 -18 -18 -18 -19 -19 -19 -19 -19 -20 -20 -21 -22 -23 -24 -25 -27 -30 -31 -33 -33 -33 -33 -33
Height
5822 5821 5823 5826 5831 5829 5832 5838 5839 5841 5844 5847 5848 5848 5849 5848 5848 5850 5850 5850 5848 5847 5845 5844 5843 5842 5840 5840 5840 5839 5838 5838 5839 5839 5839 5837 5836 5835 5833 5832 5830 5827 5825 5823 5821 5818 5816 5814 5812
5818 5819 5821 5825 5827 5829 5832 5835 5839 5840 5840 5843 5844 5845 5843 5842 5843 5843 5846 5846 5845 5844 5842 5842 5841 5839 5839 5839 5838 5838 5839 5839 5839 5838 5837 5836 5835 5834 5832 5831 5829 5826 5824 5822 5820 5818 5815 5814 5811
5816 5816 5820 5821 5824 5825 5829 5833 5835 5839 5837 5836 5838 5837 5836 5838 5839 5840 5840 5841 5839 5839 5840 5840 5838 5838 5838 5837 5837 5837 5838 5839 5838 5838 5837 5836 5834 5832 5831 5829 5827 5825 5822 5820 5818 5816 5814 5811 5810
5814 5816 5819 5821 5822 5822 5826 5828 5833 5835 5832 5836 5837 5834 5836 5835 5836 5838 5838 5837 5835 5837 5838 5837 5837 5837 5837 5836 5836 5836 5837 5837 5837 5836 5835 5833 5832 5830 5828 5826 5825 5823 5821 5819 5817 5815 5812 5809 5807
5814 5814 5817 5817 5819 5822 5821 5825 5829 5832 5830 5830 5830 5828 5832 5832 5835 5835 5834 5834 5834 5836 5835 5835 5835 5836 5835 5834 5834 5834 5835 5835 5835 5833 5832 5831 5829 5827 5825 5823 5822 5820 5817 5815 5814 5812 5809 5806 5805
5810 5812 5814 5816 5816 5818 5821 5825 5828 5829 5830 5828 5827 5828 5833 5834 5833 5832 5831 5831 5833 5833 5833 5834 5834 5834 5834 5834 5834 5835 5835 5834 5833 5832 5830 5828 5826 5824 5822 5821 5819 5817 5814 5812 5810 5807 5806 5803 5801
5806 5810 5813 5815 5816 5818 5822 5823 5825 5826 5829 5828 5829 5830 5831 5830 5830 5828 5828 5829 5830 5830 5831 5832 5832 5834 5834 5834 5834 5834 5834 5832 5831 5829 5828 5826 5824 5821 5819 5817 5815 5813 5810 5808 5805 5803 5801 5799 5797
5805 5807 5809 5811 5813 5814 5819 5820 5823 5825 5826 5829 5830 5829 5827 5827 5827 5826 5825 5826 5828 5829 5830 5831 5832 5833 5833 5833 5832 5831 5830 5829 5828 5826 5824 5821 5819 5818 5815 5813 5811 5808 5806 5803 5802 5799 5796 5795 5793
5805 5806 5806 5809 5812 5816 5816 5817 5819 5823 5826 5827 5828 5825 5825 5826 5826 5825 5824 5826 5827 5828 5829 5831 5832 5832 5831 5830 5830 5829 5828 5828 5826 5823 5820 5818 5816 5813 5810 5807 5806 5803 5801 5799 5796 5793 5791 5789 5787
5804 5805 5806 5808 5811 5815 5815 5816 5819 5821 5822 5823 5824 5824 5825 5825 5826 5826 5826 5827 5828 5829 5830 5830 5831 5830 5829 5828 5828 5826 5826 5824 5822 5820 5818 5815 5812 5809 5807 5804 5801 5798 5795 5793 5790 5787 5784 5781 5779
5801 5804 5808 5810 5813 5816 5817 5818 5820 5819 5818 5818 5820 5822 5824 5824 5825 5825 5825 5827 5828 5828 5829 5829 5827 5827 5827 5826 5825 5823 5821 5819 5817 5816 5813 5810 5807 5805 5803 5800 5795 5793 5789 5786 5782 5780 5776 5773 5771
5802 5804 5808 5811 5811 5814 5817 5820 5820 5819 5818 5817 5819 5821 5822 5824 5824 5824 5825 5827 5826 5826 5827 5827 5825 5823 5822 5822 5820 5818 5816 5815 5812 5810 5808 5806 5803 5800 5795 5792 5788 5785 5782 5778 5775 5772 5769 5766 5764
5801 5805 5809 5812 5815 5817 5818 5820 5820 5819 5818 5817 5818 5820 5821 5822 5823 5824 5825 5825 5824 5824 5824 5824 5822 5821 5820 5819 5817 5815 5812 5810 5808 5805 5801 5800 5797 5793 5787 5784 5779 5776 5773 5770 5768 5765 5763 5760 5758
5804 5806 5808 5812 5814 5816 5817 5818 5819 5819 5819 5818 5818 5820 5820 5820 5821 5823 5823 5824 5823 5823 5822 5819 5818 5817 5817 5814 5814 5811 5809 5805 5802 5799 5797 5794 5789 5785 5780 5774 5770 5767 5764 5762 5760 5758 5755 5752 5750
5804 5807 5807 5809 5812 5814 5816 5816 5817 5818 5819 5818 5818 5818 5818 5818 5819 5821 5821 5822 5822 5821 5820 5816 5815 5814 5812 5811 5809 5805 5801 5798 5793 5790 5787 5783 5780 5775 5771 5766 5762 5758 5755 5752 5750 5747 5744 5742 5740
5805 5807 5808 5809 5812 5813 5814 5815 5816 5817 5817 5816 5816 5816 5816 5817 5818 5820 5820 5818 5817 5816 5814 5811 5808 5806 5802 5800 5798 5795 5791 5787 5784 5779 5776 5774 5769 5765 5761 5758 5754 5751 5747 5744 5740 5738 5736 5733 5730
5805 5807 5809 5809 5810 5812 5812 5812 5814 5815 5814 5814 5814 5815 5815 5816 5815 5816 5816 5815 5812 5812 5810 5807 5805 5802 5795 5793 5791 5789 5785 5781 5776 5771 5767 5763 5758 5753 5750 5747 5743 5740 5736 5734 5731 5728 5724 5721 5718
5804 5807 5808 5808 5809 5809 5810 5811 5811 5812 5812 5813 5812 5812 5813 5813 5813 5812 5809 5808 5807 5805 5805 5802 5799 5795 5791 5791 5786 5780 5778 5773 5769 5764 5758 5752 5747 5742 5738 5734 5730 5727 5724 5720 5717 5713 5710 5706 5702
5804 5806 5807 5807 5807 5808 5809 5808 5809 5809 5810 5810 5809 5809 5809 5809 5809 5809 5807 5805 5803 5802 5799 5798 5794 5789 5783 5779 5777 5773 5769 5765 5760 5754 5747 5742 5737 5733 5728 5723 5719 5714 5709 5705 5701 5697 5691 5686 5681
5803 5804 5807 5807 5806 5806 5805 5805 5805 5806 5806 5805 5806 5805 5804 5804 5802 5801 5800 5798 5796 5795 5794 5791 5786 5781 5776 5772 5769 5764 5760 5753 5746 5740 5736 5730 5725 5720 5714 5710 5705 5698 5692 5685 5679 5674 5669 5663 5657
5801 5802 5804 5805 5804 5804 5803 5803 5803 5803 5803 5804 5802 5802 5802 5801 5800 5799 5798 5796 5795 5793 5790 5786 5782 5776 5772 5766 5760 5753 5748 5743 5737 5731 5726 5721 5716 5710 5704 5698 5690 5683 5676 5669 5661 5654 5646 5640 5633
5799 5800 5802 5803 5803 5802 5801 5801 5801 5801 5800 5799 5800 5800 5799 5797 5795 5793 5791 5789 5788 5785 5781 5778 5774 5768 5763 5757 5750 5744 5737 5731 5726 5721 5716 5710 5704 5698 5692 5685 5678 5670 5662 5654 5645 5637 5627 5618 5611
5798 5799 5799 5800 5800 5799 5797 5797 5798 5798 5798 5797 5797 5796 5794 5793 5791 5788 5787 5786 5782 5777 5773 5769 5765 5761 5756 5751 5745 5740 5734 5729 5723 5717 5711 5705 5698 5690 5681 5672 5663 5653 5642 5632 5621 5610 5600 5590 5582
5796 5797 5797 5797 5797 5796 5795 5794 5793 5794 5795 5794 5793 5791 5789 5787 5786 5784 5782 5779 5775 5769 5764 5762 5758 5753 5748 5743 5738 5734 5728 5722 5716 5709 5701 5692 5683 5673 5662 5651 5639 5628 5618 5608 5598 5586 5575 5565 5555
5794 5794 5794 5794 5793 5792 5791 5790 5789 5790 5789 5789 5787 5787 5786 5785 5783 5780 5775 5771 5767 5763 5758 5755 5752 5747 5742 5737 5731 5724 5718 5710 5703 5695 5684 5673 5662 5651 5640 5630 5620 5606 5593 5581 5570 5558 5548 5537 5527
5791 5791 5791 5790 5790 5789 5788 5787 5786 5784 5783 5782 5781 5781 5780 5778 5775 5771 5769 5766 5762 5756 5752 5748 5743 5739 5733 5727 5720 5713 5705 5698 5689 5679 5668 5657 5645 5634 5620 5606 5592 5579 5566 5554 5542 5531 5520 5509 5500
5789 5789 5789 5788 5788 5787 5787 5785 5782 5781 5778 5777 5775 5773 5770 5769 5768 5765 5762 5757 5752 5747 5743 5739 5734 5729 5723 5716 5708 5700 5692 5683 5673 5662 5651 5640 5627 5612 5598 5584 5571 5558 5544 5530 5517 5504 5494 5485 5479
5787 5788 5788 5787 5786 5785 5783 5782 5780 5778 5775 5772 5769 5766 5763 5761 5758 5754 5749 5744 5741 5738 5733 5728 5722 5716 5709 5701 5693 5685 5676 5666 5656 5646 5634 5621 5606 5593 5579 5564 5549 5534 5519 5502 5489 5481 5476 5468 5461
5787 5787 5786 5786 5784 5782 5781 5779 5776 5774 5771 5768 5765 5762 5758 5754 5749 5744 5739 5734 5730 5726 5720 5715 5709 5703 5696 5688 5680 5671 5661 5652 5642 5630 5617 5604 5591 5576 5560 5543 5527 5510 5494 5482 5474 5468 5461 5455 5448
5785 5785 5785 5784 5783 5779 5777 5776 5772 5769 5766 5763 5760 5755 5750 5745 5740 5735 5729 5725 5721 5716 5711 5705 5698 5691 5684 5676 5668 5658 5648 5638 5626 5614 5601 5586 5572 5554 5537 5520 5504 5488 5475 5467 5460 5454 5447 5441 5435
Wind_Speed
26 21 16 25 25 28 33 35 33 29 31 28 23 22 21 19 22 24 22 27 30 30 29 31 26 23 18 16 10 9 7 4 2 2 3 4 5 5 4 5 5 5 7 7 9 11 13 14 15
21 27 23 19 21 25 27 28 31 30 30 27 26 26 27 27 26 30 22 31 35 32 31 26 22 18 15 11 10 7 5 1 3 2 2 3 4 5 6 7 8 9 10 11 12 14 14 14 14
19 22 28 24 22 23 30 27 27 25 30 31 29 30 30 24 23 21 29 36 39 34 30 20 17 13 9 6 4 4 3 5 4 5 6 7 8 8 9 9 10 12 13 15 16 17 16 16 17
19 19 16 16 25 25 27 30 29 29 30 27 35 33 23 13 20 30 35 40 37 32 21 17 10 5 3 5 6 5 5 5 7 9 10 11 12 12 13 14 15 17 18 19 19 20 21 20 21
24 26 25 28 26 26 31 32 29 26 28 21 16 13 17 18 26 35 40 36 29 21 17 9 6 7 8 9 7 6 7 9 10 12 14 15 16 17 18 19 19 20 21 23 24 25 25 25 26
32 27 31 26 31 28 22 26 24 20 23 32 16 20 19 22 27 28 28 24 18 15 10 10 11 10 8 7 7 8 9 11 12 15 16 18 19 20 21 22 22 24 25 27 27 28 28 29 29
30 29 27 33 22 32 29 29 18 18 10 13 13 21 23 25 29 29 25 20 15 12 12 13 11 10 8 8 10 10 11 12 15 16 17 19 20 22 25 26 27 29 30 30 28 27 27 27 27
10 28 28 29 33 27 29 32 31 16 16 14 17 23 27 27 22 19 15 14 13 12 13 11 11 9 9 10 11 12 13 14 16 18 20 22 23 25 25 26 27 27 28 28 28 28 28 29 29
19 16 25 20 24 25 16 15 9 11 16 17 19 19 18 18 8 5 7 9 11 12 11 11 11 10 11 12 13 14 15 18 21 22 22 22 22 23 23 25 26 28 28 29 31 32 34 35 34
26 24 21 19 8 8 16 11 14 20 20 16 13 14 13 12 6 6 7 8 9 10 10 11 11 11 12 12 14 17 18 21 22 22 24 24 24 24 25 26 28 29 30 32 34 35 35 35 35
29 29 19 18 18 10 9 9 15 18 13 7 11 7 8 6 7 7 7 6 9 10 12 9 11 12 11 16 19 20 20 22 23 24 27 27 28 26 27 31 31 31 31 33 34 35 33 33 33
16 16 15 10 7 6 4 9 16 8 4 0 8 11 7 6 7 8 8 8 9 11 10 9 12 13 14 19 23 24 21 22 28 27 27 29 27 26 34 34 34 33 34 35 34 33 31 30 31
17 16 17 14 10 12 11 13 9 4 4 5 7 8 7 8 9 9 8 6 8 10 12 15 13 18 21 21 16 22 23 28 29 28 31 30 31 34 34 37 37 37 34 33 33 32 32 32 32
16 10 9 13 7 11 10 12 7 10 10 9 7 6 8 9 8 6 4 7 8 10 13 19 17 16 20 15 20 25 29 33 30 33 35 36 38 37 37 39 40 39 36 35 34 34 33 33 34
9 12 9 8 10 8 11 11 10 11 12 13 11 10 7 5 5 6 8 11 13 16 16 20 20 20 16 21 24 27 30 35 39 40 37 40 44 42 41 40 39 39 40 40 38 37 38 39 38
16 12 12 12 12 12 10 7 11 11 8 8 10 7 6 8 8 7 9 13 14 17 20 20 22 21 26 29 34 38 39 42 38 42 44 46 47 45 43 40 39 39 40 40 42 42 41 42 43
16 19 15 13 12 9 8 7 3 4 7 10 7 7 9 10 11 10 10 14 16 17 20 19 22 26 21 37 42 43 44 44 45 44 49 50 50 48 45 42 42 42 43 42 43 44 47 50 52
21 20 17 15 8 7 7 3 2 4 9 10 6 9 10 10 12 15 17 18 20 21 19 23 27 29 38 32 44 46 48 42 43 49 54 53 51 49 48 47 46 47 49 50 53 56 58 61 62
20 25 15 15 9 6 7 5 5 5 9 9 9 12 14 15 15 17 20 20 22 22 24 27 30 39 43 47 45 49 48 53 53 55 55 53 50 49 48 50 52 55 58 60 62 64 67 69 71
16 21 9 6 2 6 8 7 9 10 9 12 14 15 16 16 21 25 26 25 24 26 27 34 39 43 48 50 52 52 54 56 57 56 54 52 51 52 54 57 61 65 68 71 74 76 78 79 81
14 12 11 8 8 10 13 14 15 15 16 16 14 15 15 19 22 24 23 21 23 25 31 37 41 45 49 52 54 56 55 55 54 52 50 50 53 57 61 65 69 72 76 79 82 84 86 86 87
11 12 13 12 14 20 20 22 19 19 19 20 19 19 18 18 21 29 23 24 25 32 40 44 44 48 52 54 59 58 55 53 52 50 53 56 60 64 67 71 74 77 81 83 86 87 88 89 88
11 12 13 14 15 19 24 26 23 24 23 24 24 24 25 20 23 27 32 29 37 39 42 45 46 51 54 54 48 47 46 47 50 52 55 59 63 68 71 75 79 83 86 88 89 90 90 89 87
10 11 14 17 19 23 25 28 28 26 25 24 23 23 21 23 25 31 31 34 40 38 37 45 48 54 48 44 43 43 45 48 52 56 61 65 68 73 78 82 86 89 90 89 89 88 88 88 89
13 15 16 17 17 19 20 21 19 20 21 23 25 26 26 26 28 28 32 35 34 41 46 48 53 44 38 38 39 43 47 52 57 61 67 71 76 81 85 87 88 90 90 90 90 90 89 90 90
9 9 10 10 9 11 13 15 19 20 23 24 25 25 27 26 32 30 34 40 47 48 49 52 39 35 37 40 44 48 54 58 63 68 72 77 80 84 88 91 93 95 94 94 95 96 94 87 79
6 6 5 4 5 7 8 10 13 16 20 23 25 26 28 31 35 40 44 43 42 44 41 34 37 39 42 45 50 55 60 65 69 73 78 81 85 88 91 94 96 97 98 99 98 96 84 74 72
7 4 3 1 3 7 10 11 13 17 19 19 21 23 26 29 31 33 35 36 37 34 36 39 41 44 47 52 57 61 66 70 75 78 81 84 89 93 97 99 100 100 99 93 87 71 68 70 65
7 5 2 3 7 10 13 14 15 17 18 19 21 23 24 27 29 32 35 36 36 39 42 44 46 50 53 57 62 67 70 74 77 81 85 89 92 96 99 100 99 95 87 68 72 69 66 62 65
5 5 6 8 11 14 16 17 19 20 21 22 23 24 27 30 34 38 40 40 42 43 45 47 50 54 57 61 66 69 73 76 80 84 88 92 95 99 99 100 97 86 75 67 59 54 63 65 68
Wind_Direction
258 237 242 252 202 195 206 203 209 217 224 224 226 235 239 251 256 265 275 279 288 280 277 283 293 290 287 292 289 297 311 306 315 81 59 49 28 22 14 0 346 338 330 319 321 322 326 331 336
253 223 209 221 204 184 209 215 219 222 235 235 227 229 241 248 254 254 265 281 286 282 278 285 288 286 290 287 286 285 284 242 164 180 240 265 286 295 304 301 303 302 298 300 298 300 303 304 306
229 255 227 201 207 207 202 209 211 216 230 238 237 234 240 240 283 291 286 288 287 282 283 282 281 289 290 278 264 236 206 194 211 241 262 272 281 283 280 285 287 287 288 289 294 295 294 296 293
217 238 206 187 199 196 211 216 213 216 244 240 228 238 243 286 296 285 281 282 279 279 277 273 274 257 197 143 140 151 184 209 236 249 259 268 272 278 282 283 281 284 285 286 288 288 289 291 290
211 205 194 203 205 209 215 217 216 234 248 249 250 279 291 285 284 279 274 271 273 271 265 254 210 178 158 152 156 182 207 227 247 260 267 277 285 288 287 286 286 286 286 285 284 284 287 286 285
211 210 203 212 203 207 212 227 229 227 247 264 317 322 297 288 282 281 268 261 260 257 242 196 181 179 176 178 197 217 235 251 263 272 280 284 288 290 291 291 290 288 288 287 285 284 284 285 286
215 185 196 204 182 214 214 212 226 232 261 281 318 303 285 278 277 278 262 255 243 228 199 183 188 195 201 217 233 248 262 272 277 282 288 292 294 295 293 293 292 292 292 290 288 288 285 286 287
191 200 211 218 207 215 223 227 234 224 246 279 298 275 271 273 272 267 245 224 216 200 187 191 206 215 233 247 260 267 269 272 279 281 282 286 291 295 297 301 303 305 303 301 299 297 295 293 291
181 198 200 209 206 208 198 209 226 290 295 286 283 265 257 250 238 226 183 182 183 189 195 206 223 239 254 267 274 276 280 283 284 288 291 292 294 297 300 302 302 302 301 302 302 300 297 295 296
187 201 215 223 215 227 251 251 334 324 303 287 254 243 238 228 208 201 186 181 199 214 226 232 248 256 265 272 276 277 288 295 296 297 297 298 298 298 300 304 303 303 303 300 300 299 298 297 297
191 206 211 223 255 241 232 335 320 314 305 261 214 214 211 195 194 203 209 216 231 241 243 269 283 284 287 282 278 280 290 297 299 305 304 303 300 295 295 302 298 299 299 299 298 298 298 296 294
174 207 189 209 213 270 288 310 310 304 326 135 192 197 186 199 206 227 237 256 257 260 277 274 277 285 276 284 272 281 284 295 295 295 299 306 303 290 300 303 300 300 298 296 295 293 291 290 290
170 179 185 186 216 232 239 263 209 231 209 187 182 184 195 204 219 232 238 240 259 273 282 284 279 282 262 302 262 276 283 300 298 298 296 303 304 303 303 302 301 299 297 296 294 293 291 287 287
190 188 213 224 261 250 197 174 188 205 216 226 219 198 199 211 212 217 240 265 270 271 274 275 278 278 279 287 269 280 289 297 303 304 302 299 310 307 305 305 304 304 304 302 299 297 297 294 291
180 200 250 223 211 175 162 183 201 219 207 199 202 207 216 258 260 274 293 297 278 269 261 266 286 295 280 285 291 298 307 310 308 311 307 305 308 308 306 305 304 305 304 304 304 302 300 299 297
211 221 172 170 175 181 191 190 213 215 223 215 214 205 228 238 245 265 271 273 271 283 290 296 302 301 300 310 316 317 319 318 311 312 309 308 306 306 306 305 306 304 301 299 299 297 297 298 297
192 170 177 178 175 181 191 197 210 192 249 233 221 226 243 250 262 266 271 275 285 292 298 300 307 311 305 322 317 318 315 312 308 307 309 307 307 307 307 307 305 302 299 299 298 299 299 299 297
169 177 181 173 156 188 213 210 249 243 230 237 246 262 268 268 288 304 308 303 300 307 309 307 305 306 307 302 311 312 310 305 304 305 307 307 307 308 308 308 306 304 304 304 303 300 298 296 295
174 187 189 178 166 215 263 241 216 233 217 236 271 282 289 305 304 308 308 307 312 311 315 314 301 308 308 309 303 303 304 303 305 305 306 306 306 308 308 307 306 305 303 302 300 300 299 298 296
184 178 182 158 195 259 254 297 288 280 278 285 289 299 314 311 308 314 310 314 317 317 310 305 304 305 302 299 301 303 304 305 306 306 305 307 310 309 306 305 305 304 305 305 304 302 301 299 297
196 182 205 228 253 276 282 277 278 285 290 289 294 298 291 287 296 301 298 302 293 294 300 299 298 295 299 302 305 306 305 303 303 302 306 307 305 305 306 305 305 305 304 303 302 301 300 298 297
212 226 236 243 256 269 269 274 275 280 283 280 283 283 283 287 294 297 287 292 292 293 297 305 303 307 305 302 304 302 302 303 303 306 304 304 305 303 301 302 302 301 301 300 298 297 297 296 295
214 228 243 252 256 261 269 273 276 277 279 285 288 289 286 288 296 287 296 287 282 292 297 300 299 300 300 299 300 297 295 296 297 297 298 299 299 301 301 301 301 301 300 302 301 300 299 296 294
231 243 251 255 258 258 262 268 274 276 277 281 282 288 281 281 284 288 295 283 284 283 290 291 300 303 300 297 295 295 293 292 294 298 301 302 303 303 305 306 306 305 305 304 302 300 297 295 294
246 251 254 259 260 263 267 274 283 283 281 281 292 277 279 283 285 278 292 270 285 288 288 297 297 295 291 291 290 292 297 300 303 305 307 308 309 309 308 307 306 306 306 306 304 301 299 297 296
229 235 244 254 259 268 274 290 295 297 296 296 295 290 289 290 301 280 289 291 293 292 288 291 292 287 289 295 301 302 303 307 310 310 310 310 309 308 309 310 311 310 308 306 304 303 301 298 296
213 228 244 278 295 306 326 328 324 322 317 320 315 312 308 301 294 293 290 287 284 282 287 290 292 296 301 303 305 306 310 310 312 312 311 310 311 312 312 311 310 309 307 305 304 302 303 303 307
170 164 153 327 346 2 359 6 355 354 350 341 332 321 312 305 293 288 285 284 285 292 297 300 303 306 309 310 311 311 311 313 313 313 313 315 314 313 311 310 310 309 307 305 303 303 302 302 306
167 175 180 335 329 331 337 339 339 344 348 339 330 323 315 310 304 298 297 300 303 305 307 308 310 310 309 310 312 313 313 311 313 316 316 313 313 311 310 311 311 308 306 301 301 298 299 302 302
213 257 272 302 320 325 327 332 335 335 330 331 330 326 320 316 314 311 310 308 308 307 307 307 308 307 309 311 311 310 310 314 316 315 312 311 312 313 313 313 311 308 302 298 295 294 300 297 298